When you browse on this site, cookies collect data to enhance your experience and personalize the content and advertising you see.
Visit our Privacy Policy to learn more. By continuing to use the site, you agree to this use of cookies and data.
  • In Czech Republic
  • List of Countries
  • For 7 days
  • Water Temperature
  • Weather Map
  • Weather Widgets
  • user-avatar
    Login

    Hourly Weather Cobourg

    Today, 17 January, Friday

    Time Temperature Precipitation Wind Pressure Humidity
    00:00 -19°C° 0 mm 7 mps 769 mmHg 79%
    01:00 -20°C° 0 mm 6 mps 770 mmHg 80%
    02:00 -20°C° 0 mm 6 mps 771 mmHg 80%
    03:00 -21°C° 0 mm 6 mps 771 mmHg 80%
    04:00 -21°C° 0 mm 6 mps 772 mmHg 80%
    05:00 -22°C° 0 mm 6 mps 772 mmHg 81%
    06:00 -22°C° 0 mm 6 mps 773 mmHg 81%
    07:00 -22°C° 0 mm 5 mps 775 mmHg 83%
    08:00 -20°C° 0 mm 4 mps 775 mmHg 82%
    09:00 -20°C° 0 mm 4 mps 775 mmHg 80%
    10:00 -20°C° 0 mm 4 mps 775 mmHg 79%
    11:00 -17°C° 0 mm 3 mps 775 mmHg 75%
    12:00 -15°C° 0 mm 2 mps 775 mmHg 70%
    13:00 -14°C° 0 mm 2 mps 774 mmHg 65%
    14:00 -13°C° 0 mm 2 mps 774 mmHg 67%
    15:00 -13°C° 0 mm 2 mps 773 mmHg 69%
    16:00 -13°C° 0 mm 2 mps 773 mmHg 71%
    17:00 -11°C° 0 mm 1 mps 773 mmHg 74%
    18:00 -12°C° 0 mm 1 mps 773 mmHg 78%
    19:00 -12°C° 0 mm 1 mps 773 mmHg 81%
    20:00 -12°C° 0 mm 1 mps 772 mmHg 80%
    21:00 -12°C° 0 mm 1 mps 772 mmHg 79%
    22:00 -12°C° 0 mm 1 mps 771 mmHg 79%
    23:00 -14°C° 0 mm 2 mps 771 mmHg 79%

    Tomorrow, 18 January, Saturday

    Time Temperature Precipitation Wind Pressure Humidity
    00:00 -13°C° 0 mm 2 mps 771 mmHg 80%
    01:00 -13°C° 0 mm 2 mps 770 mmHg 80%
    02:00 -13°C° 0 mm 3 mps 769 mmHg 81%
    03:00 -12°C° 0 mm 4 mps 768 mmHg 81%
    04:00 -13°C° 0 mm 5 mps 767 mmHg 82%
    05:00 -12°C° 0.1 mm 5 mps 765 mmHg 84%
    06:00 -12°C° 0.1 mm 6 mps 764 mmHg 86%
    07:00 -12°C° 0.1 mm 7 mps 763 mmHg 88%
    08:00 -12°C° 0 mm 8 mps 762 mmHg 86%
    09:00 -11°C° 0 mm 8 mps 760 mmHg 84%
    10:00 -11°C° 0 mm 9 mps 759 mmHg 81%
    11:00 -10°C° 0.5 mm 9 mps 757 mmHg 85%
    12:00 -10°C° 0.5 mm 10 mps 755 mmHg 89%
    13:00 -10°C° 0.5 mm 10 mps 753 mmHg 93%
    14:00 -9°C° 1.6 mm 9 mps 751 mmHg 94%
    15:00 -9°C° 1.6 mm 9 mps 749 mmHg 95%
    16:00 -7°C° 1.6 mm 8 mps 747 mmHg 96%
    17:00 -6°C° 2 mm 8 mps 746 mmHg 96%
    18:00 -6°C° 2 mm 8 mps 744 mmHg 97%
    19:00 -5°C° 2 mm 8 mps 743 mmHg 97%
    20:00 -3°C° 1.4 mm 7 mps 742 mmHg 98%
    21:00 -2°C° 1.4 mm 7 mps 741 mmHg 98%
    22:00 -2°C° 1.4 mm 6 mps 739 mmHg 99%
    23:00 -1°C° 0.6 mm 8 mps 739 mmHg 99%

    Day after tomorrow, 19 January, Sunday

    Time Temperature Precipitation Wind Pressure Humidity
    00:00 -1°C° 0.6 mm 9 mps 739 mmHg 98%
    01:00 -2°C° 0.6 mm 11 mps 739 mmHg 98%
    02:00 -3°C° 0.6 mm 11 mps 740 mmHg 97%
    03:00 -4°C° 0.6 mm 11 mps 740 mmHg 97%
    04:00 -6°C° 0.6 mm 11 mps 740 mmHg 96%
    05:00 -8°C° 0.5 mm 10 mps 741 mmHg 94%
    06:00 -11°C° 0.5 mm 9 mps 742 mmHg 92%
    07:00 -13°C° 0.5 mm 8 mps 743 mmHg 90%
    08:00 -13°C° 0.1 mm 7 mps 744 mmHg 89%
    09:00 -13°C° 0.1 mm 7 mps 745 mmHg 88%
    10:00 -12°C° 0.1 mm 6 mps 746 mmHg 87%
    11:00 -12°C° 0 mm 6 mps 747 mmHg 87%
    12:00 -11°C° 0 mm 6 mps 748 mmHg 87%
    13:00 -11°C° 0 mm 6 mps 748 mmHg 87%
    14:00 -11°C° 0 mm 6 mps 749 mmHg 86%
    15:00 -10°C° 0 mm 6 mps 749 mmHg 86%
    16:00 -10°C° 0 mm 5 mps 750 mmHg 86%
    17:00 -11°C° 0 mm 5 mps 751 mmHg 86%
    18:00 -12°C° 0 mm 5 mps 751 mmHg 87%
    19:00 -12°C° 0 mm 5 mps 752 mmHg 87%
    20:00 -13°C° 0 mm 5 mps 753 mmHg 87%
    21:00 -15°C° 0 mm 6 mps 753 mmHg 87%
    22:00 -16°C° 0 mm 6 mps 754 mmHg 87%
    23:00 -15°C° 0 mm 5 mps 754 mmHg 87%

    20 January, Monday

    Time Temperature Precipitation Wind Pressure Humidity
    00:00 -17°C° 0 mm 5 mps 755 mmHg 87%
    01:00 -16°C° 0 mm 4 mps 755 mmHg 88%
    02:00 -17°C° 0 mm 4 mps 756 mmHg 87%
    03:00 -18°C° 0 mm 4 mps 756 mmHg 86%
    04:00 -20°C° 0 mm 5 mps 756 mmHg 85%
    05:00 -19°C° 0 mm 4 mps 757 mmHg 83%
    06:00 -19°C° 0 mm 4 mps 758 mmHg 82%
    07:00 -20°C° 0 mm 4 mps 758 mmHg 80%
    08:00 -19°C° 0 mm 4 mps 758 mmHg 78%
    09:00 -18°C° 0 mm 4 mps 759 mmHg 77%
    10:00 -17°C° 0 mm 4 mps 759 mmHg 76%
    11:00 -15°C° 0 mm 4 mps 759 mmHg 77%
    12:00 -14°C° 0 mm 4 mps 759 mmHg 78%
    13:00 -11°C° 0 mm 4 mps 759 mmHg 79%
    14:00 -11°C° 0 mm 4 mps 759 mmHg 81%
    15:00 -12°C° 0 mm 5 mps 759 mmHg 83%
    16:00 -12°C° 0 mm 5 mps 758 mmHg 85%
    17:00 -12°C° 0 mm 5 mps 758 mmHg 87%
    18:00 -13°C° 0 mm 5 mps 758 mmHg 90%
    19:00 -14°C° 0 mm 5 mps 759 mmHg 92%
    20:00 -13°C° 0 mm 5 mps 758 mmHg 92%
    21:00 -13°C° 0 mm 5 mps 758 mmHg 93%
    22:00 -14°C° 0 mm 6 mps 758 mmHg 93%
    23:00 -13°C° 0 mm 5 mps 758 mmHg 93%

    21 January, Tuesday

    Time Temperature Precipitation Wind Pressure Humidity
    00:00 -14°C° 0 mm 5 mps 758 mmHg 92%
    01:00 -14°C° 0 mm 4 mps 759 mmHg 92%
    02:00 -16°C° 0 mm 4 mps 759 mmHg 91%
    03:00 -18°C° 0 mm 5 mps 759 mmHg 90%
    04:00 -19°C° 0 mm 5 mps 760 mmHg 89%
    05:00 -20°C° 0 mm 5 mps 760 mmHg 89%
    06:00 -22°C° 0 mm 5 mps 761 mmHg 89%
    07:00 -23°C° 0 mm 4 mps 761 mmHg 89%
    08:00 -22°C° 0 mm 4 mps 762 mmHg 87%
    09:00 -22°C° 0 mm 4 mps 762 mmHg 86%
    10:00 -19°C° 0 mm 3 mps 763 mmHg 84%
    11:00 -18°C° 0 mm 3 mps 763 mmHg 82%
    12:00 -17°C° 0 mm 3 mps 763 mmHg 81%
    13:00 -15°C° 0 mm 3 mps 763 mmHg 79%
    14:00 -15°C° 0 mm 3 mps 763 mmHg 81%
    15:00 -15°C° 0 mm 3 mps 763 mmHg 82%
    16:00 -14°C° 0 mm 3 mps 763 mmHg 84%
    17:00 -15°C° 0 mm 3 mps 763 mmHg 86%
    18:00 -16°C° 0 mm 3 mps 764 mmHg 88%
    19:00 -16°C° 0 mm 2 mps 764 mmHg 89%
    20:00 -16°C° 0 mm 2 mps 764 mmHg 90%
    21:00 -16°C° 0 mm 2 mps 764 mmHg 91%
    22:00 -13°C° 0 mm 1 mps 764 mmHg 92%
    23:00 -13°C° 0 mm 1 mps 764 mmHg 92%

    22 January, Wednesday

    Time Temperature Precipitation Wind Pressure Humidity
    00:00 -12°C° 0 mm 1 mps 764 mmHg 92%
    01:00 -12°C° 0 mm 1 mps 764 mmHg 92%
    02:00 -12°C° 0 mm 1 mps 764 mmHg 93%
    03:00 -13°C° 0 mm 2 mps 764 mmHg 94%
    04:00 -13°C° 0 mm 2 mps 763 mmHg 94%
    05:00 -13°C° 0 mm 2 mps 763 mmHg 94%
    06:00 -12°C° 0 mm 2 mps 763 mmHg 94%
    07:00 -13°C° 0 mm 3 mps 763 mmHg 93%
    08:00 -11°C° 0 mm 4 mps 764 mmHg 91%
    09:00 -10°C° 0 mm 4 mps 764 mmHg 89%
    10:00 -8°C° 0 mm 5 mps 764 mmHg 87%
    11:00 -8°C° 0 mm 6 mps 764 mmHg 87%
    12:00 -7°C° 0 mm 7 mps 763 mmHg 87%
    13:00 -6°C° 0 mm 8 mps 763 mmHg 87%
    14:00 -6°C° 0 mm 8 mps 763 mmHg 86%
    15:00 -6°C° 0 mm 7 mps 763 mmHg 86%
    16:00 -6°C° 0 mm 7 mps 763 mmHg 86%
    17:00 -6°C° 0 mm 7 mps 763 mmHg 86%
    18:00 -6°C° 0 mm 7 mps 763 mmHg 86%
    19:00 -6°C° 0 mm 6 mps 763 mmHg 86%
    20:00 -6°C° 0 mm 6 mps 763 mmHg 85%
    21:00 -6°C° 0 mm 6 mps 763 mmHg 85%
    22:00 -6°C° 0 mm 6 mps 763 mmHg 84%
    23:00 -6°C° 0 mm 6 mps 763 mmHg 85%
    Show more